Other Surface Observations
Issued by NWS

Home | Current Version | Previous Version | Text Only | Print | Product List | Glossary On
Versions: 1 2 3 4 5 6 7 8 9 10 11 12 13 14 15 16 17 18 19 20 21 22 23 24 25 26 27 28 29 30 31 32 33 34 35 36 37 38 39 40 41 42 43 44 45 46 47 48 49 50
000
SXUS52 KTAE 171518
OSOTAE
OSOTAE
North Florida/South Alabama/Southwest Georgia Weather Roundup
National Weather Service Tallahassee Florida
1100 AM EDT WED SEP 17 2014

Note: "fair" indicates few or no clouds below 12,000 feet with no
significant weather and/or obstructions to visibility.

!FLZ017-115-028-034-025-171600
...North Florida...

CITY           SKY/WX    TMP DP  RH WIND       PRES   REMARKS
TALLAHASSEE    MOSUNNY   83  72  69 NE5       29.95F
APALACHICOLA   CLOUDY    83  72  69 NE7       29.95F
PERRY          PTSUNNY   75  70  83 NE3       29.96F
CROSS CITY       N/A     82  73  74 NE5       29.95F
HOMERVILLE     FAIR      82  75  78 NW5       29.96S
JACKSONVILLE   PTSUNNY   81  74  79 N7        29.93S
$$

!FLZ112-006-005-002-011-171600
...Florida Panhandle...

CITY           SKY/WX    TMP DP  RH WIND       PRES   REMARKS
MARIANNA       MOSUNNY   79  75  87 E5        29.96S
BONIFAY        NOT AVBL
PANAMA CITY NW FAIR      82  73  74 VRB3      29.96S
TYNDALL AFB    PTSUNNY   77  75  93 N6        29.97S
TYND DRONE APT FAIR      77  74  93 MISG      29.95S
DE FUNIAK SPR  FAIR      77  71  83 NE3       29.98S
EGLIN AFB      MOSUNNY   80  72  77 NE5       29.97S
DESTIN         SUNNY     80  73  79 VRB5      29.97S
HURLBURT       MOSUNNY   82  70  68 NE5       29.96S
CRESTVIEW      SUNNY     80  74  81 E5        29.98F
PENSACOLA      MOSUNNY   78  72  81 NE6       29.96F
$$

!ALZ063-066-171600
...South Alabama...

CITY           SKY/WX    TMP DP  RH WIND       PRES   REMARKS
DOTHAN         SUNNY     81  73  76 NE5       30.00F
OZARK CAIRNS   SUNNY     79  72  79 NE7       29.97S
FT RUCKER HELI MOSUNNY   80  72  76 MISG      29.96F
RUCKER HELI 3  FAIR      79  72  79 NE6       30.00S
RUCKER HELI 2  FAIR      80  71  74 N7        29.97S
FLORALA APT    SUNNY     82  73  74 CALM      29.99S
ANDALUSIA      SUNNY     87  72  60 CALM      29.97S HX  93
TROY           MOSUNNY   81  72  74 CALM      29.98F
EUFALA         FAIR      83  70  64 CALM      29.95F
MOBILE         MOSUNNY   81  72  74 NE5       29.98S
$$

!GAZ120>161-171600
...Southwest and South Central Georgia...

CITY           SKY/WX    TMP DP  RH WIND       PRES   REMARKS
THOMASVILLE    FAIR      81  73  78 E6        29.98S
BAINBRIDGE     SUNNY     84  75  74 NE7       29.96S HX  92
MOODY AFB      SUNNY     81  72  74 VRB3      29.96S
VALDOSTA       MOSUNNY   82  72  71 CALM      29.96S
MOULTRIE       SUNNY     81  73  78 NE3       29.97F
BLAKELY        SUNNY     82  73  74 NE3         N/A
ALBANY         SUNNY     82  71  69 NE7       29.98S
TIFTON         FAIR      80  71  75 NE5       29.96S
FITZGERALD     FAIR      84  67  56 NE5       29.99S
CORDELE        FAIR      82  72  71 E6        29.97S
AMERICUS       FAIR      81  70  69 CALM      29.98F
$$

!GMZ750-755-770-775-171600
...Coastal and Buoy Obs...

STATION/POSITION TIME  TEMP    WIND        PRES    VSBY  WAVE
                       AIR SEA DIR/SP/G                  HT/PER
                 (UTC) (F)     (DEG/KT/KT) (MB)    (MI)  (FT/S)
KEATON BEACH     1500   81      50/  4/  7 1014.3F
CEDAR KEY        1500   78     110/  4/  5 1014.8F
C TOWER          1500   80      50/  6/  7 1014.2R
APALACHICOLA BUO 1500   81 85   40/ 10/ 12 1014.0R         3/ 5
PANAMA CITY BUOY 1409   80 85   20/  8/ 12 1014.2R         3/ 4
MOBILE BUOY      1352   82 85   90/  2/  4 1015.2          2/ 4
ORANGE BCH AL BU 1500   79 85   30/ 10/ 12 1014.7R         1/ 7
$$



USA.gov is the U.S. government's official web portal to all federal, state and local government web resources and services.